Location: Devore Heights
(34.2372°N, 117.4156°W)
Time: 22:45:40
(UTC+00:00)

Transit 4A - Pass Details

Date: 22 September 2024
Orbit: 864 x 978 km, 66.8° (Epoch: 13 October)

Event Time Altitude Azimuth Distance (km) Brightness Sun altitude
Rises 09:05:51 0° 218° (SW) 3,437 - -50.5°
Reaches altitude 10° 09:08:21 10° 223° (SW) 2,510 - -50.2°
Maximum altitude 09:14:01 54° 300° (WNW) 1,065 - -49.5°
Drops below altitude 10° 09:19:51 10° 17° (NNE) 2,580 - -48.8°
Exits shadow 09:20:05 - 18° (NNE) 2,667 10.8 -48.8°
Sets 09:22:27 0° 22° (NNE) 3,542 11.6 -48.5°
